Zurück zum Katalog

THORAD DELTA 1 DEB

AktivLEO
NORAD 42598·DEBRIS·🇺🇸 United States

Gestartet Nov 15, 1974 von Vandenberg Space Force Base

Loading…

Nächste Überflüge (nächste 24 Stunden)

TLE

AlterndSource: Space-Track

Epoche: Sep 11, 2026, 21:57 UTC

1 42598U 74089FP  26254.91517203  .00000336  00000-0  26062-2 0  9993
2 42598 102.7878 290.9764 0182944  78.9630 283.1948 12.43092253580347

Verfolge THORAD DELTA 1 DEB in Echtzeit mit AllMySat

Download on the App Store